Location: Banff
(51.1667°N, 115.5667°W)
Time: 09:31:36
(UTC+00:00)

Envisat - Pass Details

Date: 02 December 2022
Orbit: 763 x 765 km, 98.2° (Epoch: 28 January)

Event Time Altitude Azimuth Distance (km) Brightness Sun altitude
Rises 13:16:05 0° 7° (N) 3,247 6.2 -19.4°
Reaches altitude 10° 13:18:38 10° 357° (N) 2,316 5.3 -19.0°
Enters shadow 13:22:04 28° 317° (NW) 1,430 3.9 -18.4°
